Simultaneous Nadir Overpasses (SNOs) Predictions

Prediction of SNOs between NOAA-15 and METOP-C Satellite Orbit:

Table of predicted SNOs for the next 14.0 days since TLE Epoch: 4/13/2024
Index Date (NOAA-15) Time (NOAA-15) Lat,Lon (NOAA-15) SZA (NOAA-15 ) Date (METOP-C) Time (METOP-C) Lat,Lon (METOP-C) SZA (METOP-C ) Distance(km) Time Diff (sec)
1 04/25/2024 18:08:03 -81.05, 126.47 110.44 04/25/2024 18:06:58 -81.04, 126.38 110.48 1.78 65
2 04/25/2024 18:58:35 81.05, -66.13 69.55 04/25/2024 18:57:38 81.06, -65.96 69.55 3.12 57
3 04/25/2024 19:49:03 -81.05, 101.26 110.46 04/25/2024 19:48:19 -81.05, 101.28 110.48 0.83 44
4 04/25/2024 20:39:35 81.05, -91.35 69.53 04/25/2024 20:39:00 81.05, -91.43 69.51 1.56 35
5 04/25/2024 21:30:04 -81.06, 75.68 110.51 04/25/2024 21:29:41 -81.05, 75.82 110.51 2.72 23
6 04/25/2024 22:20:36 81.06,-116.93 69.49 04/25/2024 22:20:22 81.05,-116.89 69.48 1.75 14
7 04/25/2024 23:11:03 -81.04, 50.84 110.50 04/25/2024 23:11:02 -81.06, 50.72 110.50 2.63 1
8 04/26/2024 00:01:36 81.06,-142.15 69.47 04/26/2024 00:01:43 81.06,-141.99 69.49 2.85 7
9 04/26/2024 00:52:04 -81.06, 25.26 110.55 04/26/2024 00:52:24 -81.05, 25.25 110.54 0.62 20
10 04/26/2024 01:42:36 81.06,-167.37 69.45 04/26/2024 01:43:05 81.05,-167.45 69.45 1.65 29
11 04/26/2024 02:33:04 -81.06, 0.05 110.57 04/26/2024 02:33:45 -81.06, 0.16 110.53 2.04 41
12 04/26/2024 03:23:36 81.06, 167.42 69.43 04/26/2024 03:24:26 81.06, 167.45 69.46 0.82 50
13 04/26/2024 04:14:04 -81.05, -25.17 110.59 04/26/2024 04:15:07 -81.06, -25.31 110.57 2.45 63



Historial Predications of SNOs between NOAA-15 and METOP-C
